Tracking 30970 objects as of 3-Jul-2025
HD Live streaming from Space Station
objects crossing your sky now

NOAA 16 DEB

Track NOAA 16 DEB now!
10-day predictions


NORAD ID: 41159
Int'l Code: 2000-055CS
Perigee: 781.6 km
Apogee: 813.5 km
Inclination: 98.6 °
Period: 100.7 minutes
Semi major axis: 7168 km
RCS: Unknown
Launch date: September 21, 2000
Source: United States (US)
Launch site: AIR FORCE WESTERN TEST RANGE (AFWTR)

Note: This is SATELLITE DEBRIS
Your satellite tracking list
Your tracking list is empty




NASA's NSSDC Master Catalog

Two Line Element Set (TLE):
1 41159U 00055CS  25181.43241819  .00002183  00000-0  85400-3 0  9993
2 41159  98.6289 255.4499 0022226 135.5412 224.7559 14.30401172496474
Source of the keplerian elements: AFSPC